Flag for U.S.A. Weather past 2 weeks in Bismarck, North Dakota, U.S.A.

Now
40 °F

Clear.


Feels Like: 40 °F
Forecast: 39 / 59 °F
Wind: No wind

Location: Bismarck Municipal Airport

Current Time: Oct 2, 2014 at 6:41:09 AM

Latest Report: Oct 2, 2014 at 5:52 AM


Visibility: 10 mi

Pressure: 29.91 "Hg

Humidity: 97%

Dew point: 39 °F

Location of BismarckLocation

Historic Weather in Bismarck — Graph

°F

Bismarck temperature yesterday

Maximum temperature yesterday: 63 °F (at 12:52 PM)
Minimum temperature yesterday: 51 °F (at 11:52 PM)
Average temperature yesterday: 58 °F

Past Weeks' High & Low Weather Summary

 TemperatureHumidityPressure
High93 °F (Sep 26, 3:52 PM)100% (Sep 17, 6:52 AM)30.31 "Hg (Sep 17, 6:52 AM)
Low37 °F (Sep 17, 7:52 AM)22% (Sep 25, 3:52 PM)29.36 "Hg (Sep 30, 8:55 PM)
Average63 °F71%29.93 "Hg
* Reported Sep 17 4:52 AM — Oct 2 4:52 AM, Bismarck, Weather by CustomWeather, © 2014

Note: Actual official high and low records may vary slightly from our data, if they occured in-between our weather recording intervals... More about our weather records

Advertising

Bismarck weather history for previous 24 hours

 ConditionsComfort  
Time TempWeatherWind HumidityBarometerVisibility
4:52 AM
Oct 2
39 °FClear.3 mph100%29.91 "Hg10 mi
3:52 AM45 °FClear.3 mph93%29.89 "Hg10 mi
2:52 AM44 °FClear.3 mph93%29.91 "Hg10 mi
1:52 AM48 °FPassing clouds.6 mph89%29.89 "Hg10 mi
12:52 AM49 °FClear.7 mph90%29.89 "Hg10 mi
11:52 PM
Oct 1
51 °FClear.7 mph83%29.88 "Hg10 mi
10:52 PM56 °FOvercast.7 mph72%29.85 "Hg10 mi
9:52 PM57 °FOvercast.6 mph74%29.85 "Hg10 mi
8:52 PM57 °FMostly cloudy.8 mph74%29.85 "Hg10 mi
7:52 PM57 °FOvercast.8 mph72%29.82 "Hg10 mi
6:52 PM59 °FOvercast.8 mph69%29.80 "Hg10 mi
5:52 PM60 °FOvercast.13 mph65%29.78 "Hg10 mi
4:52 PM60 °FOvercast.15 mph67%29.77 "Hg10 mi
3:52 PM63 °FOvercast.16 mph60%29.74 "Hg10 mi
2:52 PM63 °FBroken clouds.17 mph63%29.72 "Hg10 mi
1:52 PM60 °FOvercast.13 mph67%29.73 "Hg10 mi
12:52 PM63 °FScattered clouds.24 mph63%29.73 "Hg10 mi
11:52 AM58 °FOvercast.17 mph75%29.72 "Hg10 mi
10:52 AM59 °FOvercast.21 mph69%29.70 "Hg10 mi
9:52 AM58 °FPartly sunny.18 mph75%29.68 "Hg10 mi
8:52 AM57 °FPartly sunny.12 mph78%29.66 "Hg10 mi
7:52 AM56 °FOvercast.13 mph81%29.63 "Hg10 mi
6:52 AM57 °FPartly cloudy.15 mph87%29.60 "Hg10 mi
Weather by CustomWeather, © 2014

See weather overviewHow to use our weather pages